Theta_e
355 363 367 369 367 365 364 361 360 359 360 361 360 361 362 363 363 363 364 364 364 362 362 360 361 362 364 361 360 361 360 358 356 354 352 350 349 348 346 344 342 337 341
357 362 366 367 368 365 364 363 361 361 361 362 360 361 362 363 363 363 364 364 364 363 362 360 359 361 362 362 360 362 360 359 357 355 353 351 350 348 346 345 342 339 341
356 359 364 366 367 366 364 363 361 360 361 362 361 361 362 363 363 363 363 364 364 363 362 361 359 360 361 361 362 362 361 359 358 357 351 344 343 348 347 345 342 341 340
353 356 363 366 366 366 363 362 361 361 362 362 361 362 362 363 363 363 363 364 364 363 361 360 360 361 361 361 360 361 362 360 357 357 348 344 343 347 346 344 342 341 340
354 359 362 366 365 365 363 362 361 361 362 362 362 362 362 363 363 363 363 364 364 362 361 361 362 362 362 361 361 361 361 361 360 356 351 340 341 345 344 342 341 340 340
353 358 363 365 364 364 364 362 362 361 362 362 362 362 362 363 363 362 362 363 364 364 363 363 362 361 361 361 360 359 359 358 356 348 350 345 341 347 345 343 341 340 340
350 356 359 363 364 364 364 363 362 362 361 362 362 362 363 363 362 362 362 362 362 363 363 363 362 361 360 359 357 355 354 354 345 340 342 340 341 347 345 343 341 340 340
349 352 355 362 363 363 363 363 363 362 362 362 362 362 362 362 362 362 362 361 361 362 362 362 361 360 358 356 354 352 352 352 343 337 342 340 346 347 344 343 341 340 340
350 351 353 356 360 363 362 362 362 362 362 362 361 361 361 362 361 361 362 362 361 360 360 361 361 359 358 356 354 352 352 352 341 339 343 341 349 346 345 343 341 340 340
352 351 350 353 355 355 358 362 362 361 361 361 361 361 361 361 361 361 359 360 361 360 359 359 359 358 357 355 352 351 352 352 339 336 343 342 350 347 345 343 342 340 340
352 354 352 353 351 350 352 358 361 362 362 361 362 361 359 356 356 358 359 359 361 361 360 359 358 356 354 353 352 352 353 340 331 331 342 350 351 348 345 344 342 341 340
318 323 341 336 340 351 353 352 352 356 356 356 357 357 356 353 351 354 357 358 360 360 359 359 358 356 354 343 341 351 343 338 331 343 343 352 351 348 346 344 342 341 341
319 325 326 330 332 330 349 351 350 350 349 350 350 352 352 351 350 352 350 352 352 358 354 356 354 351 346 343 340 336 339 335 330 345 346 352 351 349 346 344 343 342 341
321 326 329 328 329 328 331 331 333 345 351 347 347 346 350 347 343 343 343 349 350 352 350 348 348 347 345 342 340 335 335 333 334 345 348 353 351 350 347 345 344 342 341
325 327 327 328 332 333 332 333 331 331 334 349 351 350 349 349 346 345 343 347 348 349 349 346 345 344 343 342 341 339 336 334 345 345 347 353 351 350 348 346 344 342 342
326 327 327 328 329 331 331 332 332 332 331 332 343 353 350 350 349 346 345 346 346 348 348 348 344 344 342 343 341 340 338 336 339 345 346 349 350 349 349 346 344 343 343
327 325 323 325 326 326 326 330 332 331 333 330 331 337 353 352 350 350 346 345 344 345 343 345 345 342 341 343 341 340 338 336 333 345 346 346 348 349 348 348 344 343 344
323 322 324 326 324 324 325 326 330 333 331 330 330 332 341 354 353 349 348 346 345 344 342 341 341 339 340 340 340 338 337 335 334 346 346 345 344 344 347 348 346 344 344
320 321 324 323 322 324 323 321 323 324 328 329 329 330 331 345 354 350 349 349 348 345 344 343 341 339 337 337 340 338 336 335 334 347 344 344 343 343 343 347 346 345 344
321 321 322 323 322 324 321 319 317 318 318 319 322 328 331 333 347 350 350 347 348 343 341 344 340 340 340 338 341 339 339 336 343 342 344 345 344 342 340 341 341 341 341
320 319 319 321 321 321 320 317 318 317 318 319 320 325 325 334 327 346 350 347 348 344 342 341 338 334 336 339 337 336 339 340 334 332 343 343 343 341 341 337 337 335 331
317 317 319 320 320 319 319 319 321 318 318 320 318 319 322 324 325 334 343 340 343 341 337 339 340 335 336 339 332 333 327 329 328 325 324 338 338 339 336 334 325 321 319
317 317 318 318 319 319 320 318 318 316 316 316 318 320 321 323 326 326 336 343 340 333 333 332 341 337 335 336 334 329 321 320 321 322 318 319 323 323 325 324 320 317 316
317 318 318 317 317 321 319 316 314 313 311 313 316 319 321 321 322 326 329 338 337 331 325 328 336 340 337 334 332 335 334 330 319 317 317 314 319 320 318 318 316 315 317
316 314 319 318 316 318 318 317 314 313 314 315 315 316 317 320 323 325 329 331 329 328 334 337 337 337 335 333 332 330 328 329 325 319 314 313 313 315 318 318 317 316 316
317 316 316 317 317 319 318 317 316 314 315 314 313 314 316 318 319 320 326 324 324 329 330 334 337 337 338 339 334 332 331 327 326 320 314 312 309 311 316 316 315 316 314
Wind_Speed
3 5 13 15 16 15 15 15 15 16 16 15 15 14 15 16 16 16 14 13 12 11 11 11 11 11 12 13 13 13 14 14 15 16 17 18 17 18 18 17 16 14 17
8 7 12 14 14 16 15 15 14 14 15 15 15 14 14 14 14 13 12 11 11 10 11 11 10 11 11 11 10 10 12 12 12 15 16 17 17 17 17 16 16 14 17
6 7 12 13 13 15 16 15 14 14 14 14 14 13 13 13 12 11 10 10 10 10 10 10 9 9 9 8 6 8 9 9 10 11 14 7 8 15 16 15 15 16 16
10 7 9 14 13 14 15 15 14 14 14 14 14 13 12 11 11 10 10 9 9 9 9 9 8 7 7 5 3 5 6 6 7 9 6 6 9 13 16 14 14 15 15
14 9 9 14 15 13 14 14 13 13 13 13 14 13 14 12 10 9 9 8 9 9 9 8 7 6 4 3 2 2 2 2 2 3 7 6 5 11 16 13 13 13 13
12 10 11 13 14 14 14 14 12 12 12 12 13 13 12 12 10 9 9 9 8 7 7 7 6 5 4 3 4 3 3 1 3 4 6 10 6 12 17 14 13 12 12
7 9 11 12 13 14 14 14 12 12 10 10 10 11 12 11 11 10 9 7 7 7 6 6 6 5 4 4 5 8 4 3 3 3 7 8 8 12 18 15 12 12 11
5 6 12 16 14 13 14 13 11 11 11 10 10 9 9 10 10 10 10 10 9 8 7 7 7 7 6 5 6 9 9 3 4 5 10 8 13 15 18 16 13 11 10
22 13 8 10 12 16 16 15 14 12 12 11 11 11 11 10 10 10 10 10 10 10 10 10 9 9 8 8 8 10 12 8 3 0 9 6 16 17 18 17 14 11 10
12 9 7 5 6 6 7 14 14 15 13 11 10 10 10 10 11 11 11 10 10 10 10 10 10 10 9 9 9 10 12 13 6 5 6 7 17 18 18 17 15 12 10
10 9 7 7 5 6 7 9 11 13 13 15 12 11 8 4 5 7 8 10 11 11 10 10 10 10 10 10 11 12 13 5 4 4 7 18 19 20 20 17 17 13 10
9 10 9 7 1 6 5 4 3 6 6 6 7 10 8 8 7 9 10 15 14 13 12 11 10 10 9 4 4 11 6 6 3 4 7 24 21 22 21 19 18 14 11
6 11 10 10 8 7 5 3 2 2 3 4 7 7 6 6 6 7 6 6 6 12 6 8 7 5 6 5 6 5 7 6 3 5 10 22 20 22 21 19 18 16 12
11 11 12 10 10 7 3 3 0 1 3 4 6 7 6 5 7 6 5 8 8 6 8 6 5 7 8 9 9 7 7 5 3 5 12 21 20 20 21 19 17 16 13
13 11 9 11 13 10 9 8 5 2 1 5 5 8 7 7 6 6 5 7 8 7 7 7 7 8 9 10 9 9 6 6 6 4 7 23 20 20 21 20 17 16 14
12 11 11 13 10 10 9 8 7 6 6 2 4 6 9 7 7 5 5 6 7 7 6 7 8 7 8 8 10 8 7 5 9 10 8 11 18 17 17 19 17 15 14
11 9 9 9 10 9 9 8 6 5 6 5 9 1 9 8 7 7 6 5 5 6 8 8 9 7 7 7 10 7 6 6 5 10 10 9 11 17 17 17 17 15 15
12 10 9 9 8 7 7 6 5 6 5 5 5 8 4 8 11 10 6 6 5 5 5 5 5 5 10 8 8 6 5 5 5 11 10 9 9 10 15 18 17 17 16
11 10 9 9 7 8 7 6 6 7 5 5 6 6 10 6 9 8 8 8 7 5 4 3 2 3 4 4 6 5 5 5 7 9 13 13 12 10 8 17 18 16 14
11 10 9 6 5 5 4 5 5 5 6 5 6 6 9 6 8 7 5 5 3 2 2 2 3 1 2 3 6 6 6 4 3 4 12 11 11 9 8 8 7 6 16
10 9 9 8 4 3 3 4 5 5 7 7 5 9 10 10 12 11 7 5 3 7 5 5 3 4 3 3 1 4 6 8 9 8 4 8 10 10 8 7 7 7 9
10 10 9 8 6 2 1 1 0 2 4 5 4 7 7 12 11 7 10 3 7 11 12 6 4 3 3 3 4 1 2 2 6 9 8 4 8 7 9 8 10 9 9
10 9 9 9 7 4 3 1 2 2 2 5 10 11 11 12 12 9 5 5 7 5 6 6 6 7 6 3 4 5 2 4 3 4 7 7 6 6 5 8 10 10 9
9 9 10 9 7 5 4 0 2 1 2 2 4 7 12 13 11 11 7 5 4 4 3 5 6 6 4 9 1 4 3 3 4 3 2 4 5 3 8 5 7 9 9
8 6 8 7 3 3 3 3 1 2 3 2 3 7 11 12 10 7 9 5 5 4 5 6 8 7 4 5 6 3 1 3 3 4 3 2 3 3 4 3 6 5 8
13 10 12 11 8 10 3 5 3 4 5 4 4 6 7 7 9 7 8 6 7 7 7 10 9 7 8 9 5 5 6 4 5 5 3 2 3 2 2 2 3 4 6
Wind_Direction
119 127 116 117 121 121 119 118 115 112 108 103 97 86 84 86 87 90 95 101 102 99 100 101 95 86 81 77 78 82 85 89 92 91 87 85 80 76 74 73 71 69 67
147 128 112 110 121 126 124 122 121 117 114 112 109 104 97 92 87 89 96 103 102 104 106 103 96 89 84 83 85 86 92 97 104 103 93 88 87 87 82 78 77 74 70
146 124 108 108 121 127 127 126 124 121 119 115 114 112 109 107 107 107 106 107 108 112 112 111 108 102 98 97 98 98 102 115 122 125 104 97 89 92 88 83 80 78 75
139 106 110 114 120 126 127 128 128 130 128 128 127 124 120 120 121 119 123 121 122 124 122 121 120 116 114 117 122 111 119 132 158 177 131 111 102 99 92 87 85 82 79
113 110 112 118 119 125 127 126 132 135 134 135 136 137 136 134 133 130 133 136 138 139 139 135 132 127 132 149 189 187 154 163 283 226 145 128 113 116 105 95 86 84 84
111 126 120 116 118 121 125 127 133 136 140 141 144 144 142 142 141 142 146 147 148 147 150 148 148 153 161 187 256 265 287 335 309 292 153 134 124 130 109 104 99 94 88
106 133 125 123 124 126 126 128 137 138 142 145 150 151 150 150 150 153 152 154 157 162 167 165 169 182 194 216 254 283 287 316 294 260 149 137 141 141 120 116 112 105 98
267 219 148 138 134 129 129 129 136 139 146 152 156 157 158 159 161 169 170 169 173 177 184 186 187 198 207 235 263 282 287 295 339 329 141 139 150 148 128 127 124 117 110
170 176 143 145 143 145 146 143 147 148 154 161 165 166 167 169 174 184 187 186 187 187 191 192 195 202 212 227 247 269 283 284 143 171 141 150 160 151 136 136 132 130 123
152 120 134 136 134 132 143 154 158 158 160 163 169 175 177 180 184 191 193 200 199 199 199 197 199 207 213 226 241 253 269 280 130 205 160 163 170 152 145 146 139 141 135
118 144 121 134 155 177 166 171 164 168 168 164 172 177 180 180 196 205 204 202 203 202 207 207 205 211 215 223 234 249 256 260 131 220 163 169 176 157 154 154 145 149 146
94 66 90 69 122 179 167 159 166 170 183 184 180 184 180 186 191 205 206 211 207 205 203 206 212 217 222 218 236 247 248 250 145 170 161 171 176 164 159 159 152 153 154
63 70 42 41 79 57 83 156 204 229 198 203 188 189 188 194 207 200 202 210 205 207 202 204 200 204 216 227 242 230 235 243 169 181 170 172 180 166 162 162 157 154 161
78 64 40 31 18 28 112 93 97 325 224 224 199 192 196 205 202 215 187 190 190 197 204 203 204 202 214 226 230 244 229 238 191 155 168 173 181 167 166 164 163 156 163
56 59 54 32 23 14 16 355 357 11 193 263 203 200 198 214 213 200 191 175 187 192 199 211 210 209 214 224 234 232 224 221 151 147 162 178 180 172 168 165 166 160 166
77 55 38 40 31 10 358 353 337 338 325 341 245 207 210 218 213 204 196 174 180 196 195 208 221 222 221 219 232 234 220 213 150 159 163 172 180 176 167 164 167 167 171
103 98 77 63 24 8 341 330 325 316 324 321 320 214 229 214 223 214 204 202 200 177 190 199 221 226 233 225 227 224 221 218 169 158 162 169 174 176 170 169 172 173 178
98 86 77 66 40 346 327 324 323 311 312 308 305 308 238 234 215 219 209 202 207 215 192 178 189 211 229 223 213 209 206 207 172 160 161 166 174 174 175 177 170 181 185
100 93 84 72 35 339 338 343 342 355 349 327 320 309 304 264 239 232 219 208 193 202 198 202 254 187 210 220 212 208 204 211 205 167 166 171 174 174 173 181 177 180 173
109 104 101 108 68 348 344 345 345 352 341 328 317 314 317 327 289 234 224 245 260 207 255 253 217 261 219 233 235 207 208 194 60 155 173 164 167 171 160 172 161 140 146
125 126 142 124 107 47 17 0 346 344 330 322 323 344 332 352 4 321 233 196 74 339 310 248 279 243 284 254 284 296 52 61 44 22 20 144 154 154 150 132 130 135 142
155 155 145 132 147 129 98 312 255 325 303 292 326 324 336 345 342 10 330 257 175 184 214 249 218 228 242 219 200 217 251 53 42 30 13 23 124 131 134 139 127 128 119
160 158 145 159 163 142 158 88 338 304 316 346 343 335 336 334 333 332 311 247 200 197 217 220 217 194 239 269 199 168 215 190 103 4 21 357 77 101 102 129 125 128 136
166 156 160 156 164 162 149 121 109 213 311 282 301 319 320 326 320 322 313 263 183 170 256 255 255 228 194 240 256 215 181 151 133 151 46 3 336 116 122 119 141 151 132
138 83 71 62 45 133 173 226 191 279 263 270 308 316 316 313 318 321 322 260 247 202 205 221 242 260 211 234 228 168 176 166 164 146 156 126 338 350 15 153 128 88 109
55 59 59 40 357 331 231 248 238 270 288 311 307 311 308 314 321 349 11 338 298 271 249 241 219 224 240 242 227 212 205 165 179 140 125 140 134 299 37 23 69 127 140